星链-31891 (STARLINK-31891 )

导读 | 豆包AI

STARLINK-31891是美国SpaceX星链互联网星座的一员,于2024年5月23日发射入轨,星链项目旨在为全球提供覆盖偏远地区的高速低延迟卫星互联网服务。该卫星部署在近地轨道,延续星链批量部署策略,进一步拓展全球卫星互联网的覆盖范围与服务容量,助力星链星座组网完成。

基本信息
目录编号:
59854
目录名称:
STARLINK-31891
国际标识:
2024-097V
轨道中心:
EARTH
卫星名称:
星链-31891
卫星全名:
星链-31891 (STARLINK-31891 )
卫星状态:
在轨 (已飞行661 天)
发射日期:
2024-05-23 UTC
国别 :
美国 (US)
星等 :
--
轨道信息
数据来源 国际轨道数据 AOE轨道数据
星历时间 2026-03-15T12:22:05+0800
15小时前
查看轨道信息
2026-03-14T03:00:00+0800
2天前
查看轨道信息
半长轴 6861.194km 6861.148km
偏心率 0.000101 0.0000905
轨道倾角 43.004° 43.004°
近地点辐角 270.228° 251.275°
升交点赤经 243.612° 251.466°
平近点角 89.845° 13.993°
近地点 482.364km 482.39km
远地点 483.75km 483.632km
周期 94.267分钟 94.266分钟
每日圈数 15.275776 15.275928
详细信息
固有亮度:
5
最大亮度:
1.5
卫星平台:
Starlink v2.0 mini
覆盖范围:
全球
运营商:
太空探索技术公司
运营商所在国:
美国
制造商(研发单位):
太空探索技术公司
制造商所在国:
美国
使用方式:
暂无
卫星简介
星链(Starlink)计划是由太空探索技术公司(SpaceX)提出的一个巨型低轨卫星互联网星座项目,计划在2019年至2024年间在太空搭建由约1.2万颗卫星组成的“星链”网络,其中1584颗将部署在地球上空550千米处的近地轨道,并从2020年开始工作。该卫星仍在工作。
2D轨道图
3D轨道图
轨道高度分析图
轨道倾角分析图
轨道综合分析图
查看轨道综合分析图